Regional Weather Roundup
Issued by NWS Goodland, KS

Home | Current Version | Previous Version | Text Only | Print | Product List | Glossary Off
Versions: 1 2 3 4 5 6 7 8 9 10 11 12 13 14 15 16 17 18 19 20 21 22 23 24 25 26 27 28 29 30 31 32 33 34 35 36 37 38 39 40 41 42 43 44 45 46 47 48 49 50

000
ASUS43 KGLD 221608
RWRGLD

GOODLAND FORECAST AREA HOURLY WEATHER ROUNDUP
NATIONAL WEATHER SERVICE GOODLAND KS
1000 AM MDT MON MAY 22 2017

...OFFICIAL OBSERVATIONS...

CITY           SKY/WX    TMP DP  RH WIND       PRES   REMARKS
GOODLAND KS    CLOUDY    61  51  70 NW12      30.09F
HILL CITY KS   CLOUDY    59  53  80 W6        30.06F
IMPERIAL NEB   SUNNY     65  41  41 NW14      30.06F
MCCOOK NEB     CLOUDY    64  49  57 W10       30.04F
AKRON CO       SUNNY     59  43  55 W13       30.13F
BURLINGTON CO  SUNNY     61  46  57 NW10      30.12F
LIMON CO       SUNNY     57  39  51 N12       30.17F
$$

...UNOFFICIAL OBSERVATIONS...

CITY           SKY/WX    TMP DP  RH WIND       PRES   REMARKS
LENORA KS        N/A     57  32  39 MISG        N/A
NORTON KS      SUNNY     61  48  63 W7        30.04S
SHARON SPRINGS   N/A     58  54  86 W7G14       N/A
TRENTON NEB      N/A     64  32  30 NW8         N/A
KIT CARSON CO    N/A     59  45  59 CALM        N/A
$$




USA.gov is the U.S. government's official web portal to all federal, state and local government web resources and services.